Location: Crescent
(42.8242°N, 73.7329°W)
Time: 02:10:01
(UTC+00:00)

Transit 4A - Pass Details

Date: 21 February 2026
Orbit: 863 x 978 km, 66.8° (Epoch: 13 March)

Event Time Altitude Azimuth Distance (km) Brightness Sun altitude
Rises 09:31:44 0° 254° (WSW) 3,469 - -24.8°
Reaches altitude 10° 09:34:47 10° 270° (W) 2,549 - -24.2°
Maximum altitude 09:39:17 22° 320° (NW) 1,865 - -23.4°
Exits shadow 09:39:47 22° 327° (NNW) 1,878 9.2 -23.3°
Drops below altitude 10° 09:43:54 10° 10° (N) 2,616 10.4 -22.6°
Sets 09:47:06 0° 25° (NNE) 3,584 11.4 -22.0°
